[[{"header":{"parameterUnit":"m.s-1","parameterCategory":1,"la1":30.2991,"la2":30.254,"lo1":-89.0895,"lo2":-89.0444,"dy":0.0017,"dx":0.0017,"nx":28,"ny":28,"refTime":"2025-07-09T21:00:00:Z","depth":0,"parameterNumber":2,"parameterNumberName":"U-component_of_WINDS"},"data":[0,0,0,0,0,0,0,0,0,0,0,0,0,0,0,0,0,0,0,0,0,0,0,0,0,0,0,0,0,0,0,0,0,0,0,0,0,0,0,0,0,0,0,0,0,0,0,0,0,0,0,0,0,0,0,0,0,0,3.7736,3.7737,0,3.7807,3.7807,3.7808,3.7756,3.7754,3.7751,3.7749,3.7824,3.7828,3.7832,0,0,0,0,0,0,0,0,0,0,0,0,0,3.7559,3.7562,3.7736,3.7737,3.7738,3.7806,3.7807,3.7808,3.7756,3.7754,3.7751,3.7748,3.7822,3.7827,3.7832,0,0,0,0,0,0,0,0,0,0,0,0,0,3.7633,3.7563,3.7736,3.772,3.7719,3.7806,3.7807,3.7809,3.7757,3.7754,3.775,3.7747,3.7821,3.7827,3.7833,3.7939,0,0,3.7852,3.7854,0,0,0,0,0,0,0,0,3.7629,3.764,3.7722,3.7721,3.7721,3.7769,3.7772,3.7853,3.7758,3.7743,3.7749,3.7745,3.7808,3.7815,3.7836,3.7943,3.7946,3.7852,3.7856,3.7858,3.786,0,0,0,0,0,0,0,3.7624,3.7636,3.7764,3.7723,3.7722,3.771,3.7717,3.7787,3.7794,3.7744,3.774,3.7749,3.7807,3.783,3.7837,3.7947,3.7852,3.7857,3.7861,3.7864,3.8144,3.8148,0,0,0,0,0,0,3.762,3.7632,3.7762,3.7766,3.7665,3.7716,3.7724,3.7757,3.7793,3.7795,3.7752,3.7746,3.7821,3.783,3.784,3.7966,3.7858,3.7864,3.7868,3.814,3.8145,3.8149,0,0,0,0,0,0,3.7616,3.7632,3.7759,3.7698,3.7714,3.7723,3.7761,3.776,3.7783,3.7799,3.78,3.7774,3.7819,3.7831,3.7915,3.7968,3.7867,3.7873,3.8136,3.8142,3.8147,3.822,0,0,0,0,0,0,3.7611,3.7631,3.7671,3.77,3.7717,3.7832,3.7764,3.7764,3.7793,3.7787,3.782,3.7822,3.7817,3.7906,3.7921,3.7974,3.7877,3.8131,3.8139,3.8145,3.8213,3.8227,3.824,0,0,0,0,0,3.7605,3.7689,3.7673,3.7689,3.7767,3.7835,3.7845,3.7837,3.7798,3.7838,3.7849,3.7821,3.796,3.7915,3.7931,3.7988,3.8128,3.8137,3.8145,3.8207,3.8224,3.8239,0,0,0,0,0,0,3.7668,3.7693,3.7675,3.7771,3.7801,3.7826,3.7877,3.7856,3.7899,3.7891,3.788,3.7888,3.7975,3.799,3.7939,3.8092,3.8038,3.805,3.8079,3.8096,3.8109,3.8103,3.7882,0,0,0,0,0,3.7693,3.7745,3.7765,3.7847,3.7863,3.7868,3.7897,3.7888,3.792,3.7932,3.7949,3.7981,3.8031,3.8065,3.8112,3.8215,3.8221,3.8262,3.8276,3.8287,3.8297,3.8351,3.8369,3.8177,3.8177,3.8177,0,0,3.7744,3.7765,3.7799,3.786,3.7883,3.7937,3.7879,3.794,3.798,3.7942,3.8021,3.8034,3.8069,3.8163,3.8205,3.8178,3.8352,3.8298,3.8306,3.831,3.8362,3.838,3.8396,3.8183,3.8182,3.8181,0,0,3.7866,3.7888,3.7958,3.7982,3.8016,3.8019,3.8036,3.8064,3.8071,3.8151,3.8122,3.8171,3.8259,3.8284,3.8309,3.8441,3.8417,3.8458,3.8527,3.8581,3.8596,3.8609,3.8655,3.8671,3.8468,3.8468,3.8468,0,3.7926,3.8007,3.7997,3.806,3.8088,3.8055,3.8126,3.815,3.8199,3.8219,3.8188,3.8297,3.8318,3.8416,3.8448,3.847,3.8489,3.8453,3.8594,3.8607,3.862,3.8663,3.8681,3.8473,3.8472,3.8472,3.8471,0,3.8079,3.8136,3.8189,3.8235,3.827,3.8337,3.8337,3.8373,3.8361,3.8367,3.8448,3.8473,3.8524,3.8547,3.8537,3.8644,3.8626,3.8596,3.854,3.8643,3.8683,3.87,3.8479,3.8478,3.8476,3.8475,0,0,3.8241,3.8281,3.8301,3.8321,3.8357,3.8401,3.8467,3.8516,3.8546,3.8582,3.8636,3.8711,3.8682,3.871,3.8703,3.875,3.8852,3.8713,3.8714,3.8736,3.8969,3.8991,3.901,3.8836,3.884,3.8842,3.8966,0,3.8363,3.8476,3.8469,3.8576,3.8627,3.8598,3.8655,3.8683,3.8691,3.8736,3.8745,3.8798,3.8757,3.8773,3.8819,3.883,3.8898,3.8821,3.8886,3.8888,3.8876,3.9032,3.9055,3.917,3.8982,3.8984,3.8986,0,3.8521,3.856,3.8671,3.8699,3.872,3.8772,3.8816,3.8861,3.8892,3.8895,3.8926,3.8911,3.8977,3.8922,3.9013,3.8961,3.8987,3.8997,3.9001,3.9005,3.8942,3.9038,3.9207,3.9223,3.9012,3.901,3.9008,0,3.8625,3.8707,3.8783,3.8802,3.8837,3.8873,3.8889,3.8918,3.8948,3.8988,3.9007,3.9054,3.908,3.9117,3.9115,3.9075,3.9207,3.9152,3.921,3.921,3.9237,3.9235,3.9411,3.9258,3.9258,3.9258,3.9258,0,3.8761,3.883,3.883,3.8877,3.8954,3.8946,3.9022,3.9034,3.906,3.9109,3.9087,3.9134,3.9129,3.9177,3.9176,3.9251,3.9263,3.9266,3.9265,3.9267,3.9266,3.9283,3.9274,3.9262,3.9261,3.9261,3.926,0,3.889,3.8893,3.8974,3.9001,3.9009,3.9064,3.9086,3.9131,3.9137,3.9199,3.9214,3.9224,3.9278,3.928,3.9343,3.9343,3.9433,3.9424,3.9422,3.9419,3.9477,3.9471,3.9667,3.9692,3.9526,3.9527,3.9529,0,3.8975,3.9028,3.9059,3.909,3.9108,3.9159,3.9189,3.9184,3.9217,3.9257,3.9297,3.9349,3.939,3.9479,3.9491,3.9539,3.953,3.9595,3.9537,3.9537,3.9528,3.9524,3.9529,3.9606,3.9608,3.9609,3.9611,0,3.9126,3.9125,3.917,3.9215,3.9252,3.9287,3.932,3.9347,3.9346,3.9384,3.9438,3.947,3.9534,3.9586,3.9633,3.965,3.963,3.9629,3.9645,3.9646,3.9642,3.9643,3.9451,3.9624,3.9623,3.9622,3.9621,3.9621,3.9235,3.9279,3.9308,3.9358,3.9382,3.9414,3.9456,3.9468,3.9513,3.9564,3.9559,3.962,3.965,3.9711,3.9732,3.9779,3.9756,3.978,3.9785,3.979,3.9795,3.9637,3.9788,3.9788,3.9787,3.9787,3.9787,0,3.9382,3.94,3.9446,3.9492,3.9532,3.951,3.9546,3.958,3.9633,3.9663,3.9704,3.9767,3.9817,3.9834,3.9883,3.9918,3.991,3.9931,3.9927,3.9931,3.9814,3.9794,3.9936,3.9936,3.9936,3.9936,3.9936,3.9936,3.9464,3.9537,3.954,3.9625,3.9642,3.9701,3.9723,3.9752,3.9775,3.9846,3.9887,3.9898,3.9923,3.9973,4.0018,4.0022,4.004,4.0064,4.0064,3.9954,3.9939,3.9925,3.9906,4.0069,4.0069,4.0176,4.0177,4.0178]},{"header":{"parameterUnit":"m.s-1","parameterCategory":1,"la1":30.2991,"la2":30.254,"lo1":-89.0895,"lo2":-89.0444,"dy":0.0017,"dx":0.0017,"nx":28,"ny":28,"refTime":"2025-07-09T21:00:00:Z","depth":0,"parameterNumber":3,"parameterNumberName":"V-component_of_WINDS"},"data":[0,0,0,0,0,0,0,0,0,0,0,0,0,0,0,0,0,0,0,0,0,0,0,0,0,0,0,0,0,0,0,0,0,0,0,0,0,0,0,0,0,0,0,0,0,0,0,0,0,0,0,0,0,0,0,0,0,0,4.0972,4.0974,0,4.1148,4.115,4.1152,4.1221,4.1221,4.122,4.122,4.1396,4.1401,4.1406,0,0,0,0,0,0,0,0,0,0,0,0,0,4.0687,4.0692,4.0972,4.0974,4.0976,4.1148,4.115,4.1153,4.1221,4.1221,4.122,4.122,4.1394,4.14,4.1406,0,0,0,0,0,0,0,0,0,0,0,0,0,4.0831,4.0693,4.0971,4.1031,4.1038,4.1147,4.115,4.1153,4.1221,4.1221,4.122,4.1219,4.1392,4.1399,4.1407,4.1468,0,0,4.143,4.1434,0,0,0,0,0,0,0,0,4.0823,4.0842,4.102,4.1027,4.1035,4.1162,4.1114,4.1259,4.1222,4.1152,4.122,4.1219,4.1318,4.1332,4.1366,4.1476,4.1484,4.1431,4.1436,4.1439,4.1441,0,0,0,0,0,0,0,4.0813,4.0835,4.1041,4.1023,4.1032,4.1047,4.1066,4.1142,4.1236,4.1158,4.1163,4.1183,4.1322,4.1359,4.1371,4.1486,4.1431,4.1438,4.1442,4.1445,4.1651,4.1652,0,0,0,0,0,0,4.0794,4.0826,4.1036,4.1047,4.0926,4.1052,4.1075,4.1122,4.1236,4.1253,4.1184,4.1186,4.1346,4.1362,4.1377,4.1454,4.1439,4.1446,4.1451,4.165,4.1651,4.1652,0,0,0,0,0,0,4.0788,4.0812,4.1029,4.0938,4.0967,4.1058,4.1111,4.1126,4.1163,4.1256,4.1272,4.1204,4.1346,4.1367,4.1444,4.1462,4.145,4.1457,4.1649,4.165,4.1651,4.161,0,0,0,0,0,0,4.0779,4.0809,4.0836,4.0938,4.0971,4.1095,4.1112,4.113,4.1176,4.1181,4.1279,4.1295,4.1347,4.1433,4.1452,4.1472,4.1463,4.1648,4.165,4.1651,4.161,4.161,4.1609,0,0,0,0,0,4.0769,4.0817,4.0837,4.0862,4.1006,4.1096,4.1115,4.1175,4.1177,4.1203,4.1262,4.1292,4.1456,4.144,4.1462,4.1485,4.1647,4.1649,4.1651,4.161,4.161,4.1609,0,0,0,0,0,0,4.0714,4.0832,4.0855,4.0938,4.1006,4.1108,4.1142,4.1173,4.1242,4.1243,4.1313,4.1335,4.1406,4.1453,4.1433,4.1548,4.1553,4.156,4.1515,4.1515,4.1514,4.1502,4.1469,0,0,0,0,0,4.0711,4.0776,4.0875,4.0938,4.0972,4.105,4.1092,4.1132,4.1206,4.1235,4.13,4.1368,4.1434,4.1477,4.1544,4.1616,4.1637,4.1642,4.1642,4.1641,4.1646,4.1684,4.1687,4.1658,4.1658,4.1658,0,0,4.0707,4.0779,4.0816,4.0929,4.0987,4.105,4.1075,4.1142,4.1188,4.1244,4.1322,4.1371,4.1452,4.1526,4.1562,4.1568,4.1658,4.1643,4.1642,4.1648,4.1687,4.1689,4.1692,4.166,4.1659,4.1659,0,0,4.0732,4.0794,4.0852,4.0909,4.0996,4.1048,4.1061,4.1157,4.1192,4.1271,4.1314,4.1369,4.1483,4.1538,4.1581,4.162,4.1649,4.164,4.1637,4.1674,4.1676,4.1679,4.1691,4.1695,4.1644,4.1644,4.1644,0,4.0715,4.0815,4.0878,4.0942,4.0989,4.1042,4.11,4.1152,4.1255,4.1285,4.129,4.1432,4.149,4.1577,4.1586,4.1619,4.1635,4.163,4.1671,4.1674,4.1677,4.169,4.1695,4.1642,4.1642,4.1643,4.1643,0,4.0788,4.0856,4.0892,4.0991,4.1042,4.1103,4.1172,4.1216,4.125,4.13,4.1377,4.1448,4.1529,4.1552,4.1586,4.1642,4.1643,4.1658,4.1666,4.1677,4.169,4.1696,4.164,4.164,4.1641,4.1641,0,0,4.0786,4.0917,4.093,4.0974,4.1072,4.1124,4.1185,4.1264,4.1299,4.1367,4.1418,4.1512,4.1526,4.1574,4.1614,4.1646,4.167,4.1658,4.1661,4.1657,4.1734,4.1721,4.1726,4.1689,4.1691,4.1692,4.1727,0,4.0823,4.0937,4.0994,4.1082,4.1143,4.1192,4.1244,4.1308,4.1355,4.1412,4.1463,4.1528,4.1542,4.1571,4.1605,4.166,4.1687,4.1659,4.1736,4.1738,4.1715,4.1734,4.1722,4.1752,4.1732,4.1733,4.1734,0,4.0883,4.095,4.1044,4.1132,4.116,4.1207,4.1282,4.1337,4.1408,4.144,4.1492,4.153,4.1593,4.1594,4.1679,4.1659,4.1693,4.1724,4.1727,4.1737,4.1737,4.1743,4.1763,4.1767,4.1743,4.1742,4.1741,0,4.0869,4.0984,4.1055,4.1091,4.1196,4.1227,4.1271,4.1343,4.1386,4.1451,4.1479,4.1549,4.1588,4.164,4.1696,4.1692,4.1774,4.1781,4.1801,4.1799,4.1817,4.1815,4.1842,4.1839,4.1839,4.1838,4.1838,0,4.0905,4.096,4.105,4.1094,4.1156,4.1218,4.1277,4.1325,4.1387,4.1438,4.1484,4.1531,4.1601,4.1656,4.1699,4.1762,4.1779,4.1804,4.1815,4.1801,4.1797,4.1825,4.1824,4.184,4.1839,4.1839,4.1839,0,4.0902,4.0965,4.1045,4.1136,4.116,4.1202,4.1279,4.1321,4.1369,4.1433,4.1451,4.1526,4.1592,4.1652,4.174,4.1768,4.1832,4.1845,4.1808,4.1814,4.183,4.1827,4.1875,4.1884,4.1874,4.1874,4.1874,0,4.092,4.0964,4.106,4.1098,4.1142,4.1203,4.1247,4.1308,4.1351,4.1434,4.1466,4.1535,4.1595,4.1697,4.1757,4.1824,4.1839,4.1851,4.185,4.1832,4.1839,4.1835,4.1839,4.1851,4.1851,4.185,4.185,0,4.0946,4.0974,4.1037,4.1109,4.116,4.122,4.128,4.1308,4.1381,4.1426,4.1495,4.1541,4.1629,4.1697,4.1769,4.1812,4.1842,4.185,4.1858,4.1844,4.182,4.1832,4.1806,4.1849,4.1849,4.1849,4.1849,4.1849,4.0954,4.0994,4.1067,4.1134,4.1186,4.1241,4.1284,4.1337,4.1396,4.1474,4.1506,4.1574,4.1641,4.1742,4.1784,4.1837,4.1843,4.1855,4.1858,4.186,4.1857,4.1811,4.185,4.1851,4.1851,4.1851,4.1851,0,4.0981,4.103,4.1091,4.1174,4.1226,4.125,4.1317,4.1358,4.1419,4.148,4.1536,4.1613,4.1678,4.1742,4.181,4.1839,4.1855,4.1855,4.1853,4.1862,4.1848,4.1834,4.1841,4.1841,4.1841,4.1841,4.1841,4.1841,4.1001,4.107,4.1106,4.1198,4.1246,4.1315,4.1351,4.1401,4.145,4.1534,4.1588,4.163,4.1691,4.1763,4.1822,4.1839,4.1861,4.1858,4.1878,4.1863,4.1864,4.1864,4.1851,4.1862,4.1862,4.1888,4.1889,4.1889]}]]